When you browse on this site, cookies collect data to enhance your experience and personalize the content and advertising you see.
Visit our Privacy Policy to learn more. By continuing to use the site, you agree to this use of cookies and data.

Stündliche Wetter Biskira

Heute, 7 Juli, Dienstag

Zeit Temperatur Niederschläge Wind Luftdruck Luftfeuchtigkeit
00:00 +32°C° 0 mm 5 m/S 751 mmHg 29%
01:00 +32°C° 0 mm 5 m/S 751 mmHg 28%
02:00 +30°C° 0 mm 5 m/S 750 mmHg 27%
03:00 +30°C° 0 mm 5 m/S 750 mmHg 25%
04:00 +30°C° 0 mm 4 m/S 751 mmHg 26%
05:00 +30°C° 0 mm 4 m/S 751 mmHg 26%
06:00 +30°C° 0 mm 4 m/S 752 mmHg 26%
07:00 +33°C° 0 mm 3 m/S 752 mmHg 23%
08:00 +34°C° 0 mm 2 m/S 752 mmHg 20%
09:00 +36°C° 0 mm 2 m/S 752 mmHg 16%
10:00 +37°C° 0 mm 2 m/S 752 mmHg 15%
11:00 +38°C° 0 mm 2 m/S 752 mmHg 14%
12:00 +39°C° 0 mm 2 m/S 752 mmHg 13%
13:00 +40°C° 0 mm 2 m/S 751 mmHg 12%
14:00 +41°C° 0 mm 2 m/S 751 mmHg 11%
15:00 +41°C° 0 mm 2 m/S 750 mmHg 10%
16:00 +41°C° 0 mm 2 m/S 750 mmHg 10%
17:00 +41°C° 0 mm 2 m/S 750 mmHg 10%
18:00 +42°C° 0 mm 3 m/S 750 mmHg 11%
19:00 +39°C° 0 mm 2 m/S 751 mmHg 13%
20:00 +38°C° 0 mm 2 m/S 751 mmHg 15%
21:00 +36°C° 0 mm 2 m/S 752 mmHg 17%
22:00 +35°C° 0 mm 2 m/S 752 mmHg 20%
23:00 +35°C° 0 mm 2 m/S 752 mmHg 23%

Morgen, 8 Juli, Mittwoch

Zeit Temperatur Niederschläge Wind Luftdruck Luftfeuchtigkeit
00:00 +34°C° 0 mm 2 m/S 752 mmHg 26%
01:00 +32°C° 0 mm 2 m/S 752 mmHg 27%
02:00 +31°C° 0 mm 2 m/S 751 mmHg 28%
03:00 +31°C° 0 mm 3 m/S 751 mmHg 29%
04:00 +31°C° 0 mm 3 m/S 751 mmHg 30%
05:00 +32°C° 0 mm 4 m/S 752 mmHg 31%
06:00 +32°C° 0 mm 5 m/S 752 mmHg 33%
07:00 +33°C° 0 mm 5 m/S 752 mmHg 30%
08:00 +34°C° 0 mm 5 m/S 753 mmHg 28%
09:00 +36°C° 0 mm 4 m/S 753 mmHg 25%
10:00 +37°C° 0 mm 4 m/S 752 mmHg 23%
11:00 +38°C° 0 mm 3 m/S 752 mmHg 21%
12:00 +39°C° 0 mm 2 m/S 752 mmHg 19%
13:00 +40°C° 0 mm 2 m/S 752 mmHg 17%
14:00 +41°C° 0 mm 2 m/S 751 mmHg 16%
15:00 +41°C° 0 mm 2 m/S 751 mmHg 15%
16:00 +41°C° 0 mm 2 m/S 751 mmHg 14%
17:00 +43°C° 0 mm 3 m/S 750 mmHg 13%
18:00 +43°C° 0 mm 3 m/S 750 mmHg 13%
19:00 +40°C° 0 mm 3 m/S 751 mmHg 14%
20:00 +39°C° 0 mm 2 m/S 751 mmHg 16%
21:00 +37°C° 0 mm 2 m/S 752 mmHg 18%
22:00 +36°C° 0 mm 2 m/S 752 mmHg 17%
23:00 +36°C° 0 mm 3 m/S 752 mmHg 16%

übermorgen, 9 Juli, Donnerstag

Zeit Temperatur Niederschläge Wind Luftdruck Luftfeuchtigkeit
00:00 +35°C° 0 mm 3 m/S 752 mmHg 16%
01:00 +34°C° 0 mm 3 m/S 752 mmHg 16%
02:00 +34°C° 0 mm 3 m/S 752 mmHg 17%
03:00 +33°C° 0 mm 3 m/S 752 mmHg 17%
04:00 +33°C° 0 mm 3 m/S 752 mmHg 22%
05:00 +31°C° 0 mm 3 m/S 752 mmHg 26%
06:00 +32°C° 0 mm 4 m/S 752 mmHg 31%
07:00 +34°C° 0 mm 4 m/S 753 mmHg 30%
08:00 +35°C° 0 mm 5 m/S 753 mmHg 28%
09:00 +36°C° 0 mm 5 m/S 753 mmHg 27%
10:00 +37°C° 0 mm 5 m/S 753 mmHg 24%
11:00 +40°C° 0 mm 5 m/S 752 mmHg 21%
12:00 +41°C° 0 mm 4 m/S 752 mmHg 18%
13:00 +40°C° 0 mm 3 m/S 751 mmHg 17%
14:00 +42°C° 0 mm 3 m/S 751 mmHg 16%
15:00 +41°C° 0 mm 2 m/S 750 mmHg 15%
16:00 +41°C° 0 mm 2 m/S 750 mmHg 15%
17:00 +41°C° 0 mm 2 m/S 750 mmHg 15%
18:00 +42°C° 0 mm 3 m/S 750 mmHg 15%
19:00 +40°C° 0 mm 2 m/S 750 mmHg 16%
20:00 +38°C° 0 mm 2 m/S 751 mmHg 18%
21:00 +36°C° 0 mm 1 m/S 751 mmHg 19%
22:00 +36°C° 0 mm 2 m/S 751 mmHg 20%
23:00 +36°C° 0 mm 2 m/S 751 mmHg 20%

10 Juli, Freitag

Zeit Temperatur Niederschläge Wind Luftdruck Luftfeuchtigkeit
00:00 +35°C° 0 mm 3 m/S 751 mmHg 21%
01:00 +34°C° 0 mm 3 m/S 751 mmHg 26%
02:00 +33°C° 0 mm 4 m/S 751 mmHg 31%
03:00 +30°C° 0 mm 5 m/S 751 mmHg 36%
04:00 +30°C° 0 mm 4 m/S 751 mmHg 38%
05:00 +30°C° 0 mm 4 m/S 751 mmHg 41%
06:00 +30°C° 0 mm 3 m/S 751 mmHg 43%
07:00 +31°C° 0 mm 3 m/S 752 mmHg 39%
08:00 +33°C° 0 mm 3 m/S 752 mmHg 36%
09:00 +35°C° 0 mm 3 m/S 752 mmHg 32%
10:00 +36°C° 0 mm 3 m/S 752 mmHg 29%
11:00 +37°C° 0 mm 3 m/S 751 mmHg 26%
12:00 +39°C° 0 mm 2 m/S 751 mmHg 22%
13:00 +40°C° 0 mm 2 m/S 750 mmHg 20%
14:00 +41°C° 0 mm 2 m/S 750 mmHg 18%
15:00 +42°C° 0 mm 2 m/S 749 mmHg 16%
16:00 +42°C° 0 mm 2 m/S 749 mmHg 16%
17:00 +42°C° 0 mm 2 m/S 749 mmHg 15%
18:00 +42°C° 0 mm 2 m/S 750 mmHg 15%
19:00 +40°C° 0 mm 2 m/S 750 mmHg 17%
20:00 +39°C° 0 mm 2 m/S 751 mmHg 19%
21:00 +37°C° 0 mm 2 m/S 752 mmHg 21%
22:00 +37°C° 0 mm 2 m/S 751 mmHg 22%
23:00 +36°C° 0 mm 2 m/S 751 mmHg 22%

11 Juli, Samstag

Zeit Temperatur Niederschläge Wind Luftdruck Luftfeuchtigkeit
00:00 +36°C° 0 mm 2 m/S 751 mmHg 23%
01:00 +35°C° 0 mm 3 m/S 751 mmHg 26%
02:00 +34°C° 0 mm 4 m/S 750 mmHg 30%
03:00 +33°C° 0 mm 5 m/S 750 mmHg 33%
04:00 +33°C° 0 mm 5 m/S 751 mmHg 35%
05:00 +33°C° 0 mm 4 m/S 751 mmHg 36%
06:00 +32°C° 0 mm 4 m/S 751 mmHg 37%
07:00 +34°C° 0 mm 4 m/S 751 mmHg 35%
08:00 +35°C° 0 mm 4 m/S 752 mmHg 32%
09:00 +36°C° 0 mm 4 m/S 752 mmHg 30%
10:00 +37°C° 0 mm 4 m/S 752 mmHg 27%
11:00 +38°C° 0 mm 3 m/S 751 mmHg 24%
12:00 +40°C° 0 mm 2 m/S 751 mmHg 22%
13:00 +40°C° 0 mm 3 m/S 751 mmHg 20%
14:00 +42°C° 0 mm 3 m/S 751 mmHg 19%
15:00 +43°C° 0 mm 4 m/S 750 mmHg 18%
16:00 +42°C° 0 mm 4 m/S 750 mmHg 18%
17:00 +42°C° 0 mm 4 m/S 750 mmHg 17%
18:00 +41°C° 0 mm 4 m/S 750 mmHg 17%
19:00 +40°C° 0 mm 3 m/S 750 mmHg 18%
20:00 +39°C° 0 mm 3 m/S 751 mmHg 19%
21:00 +38°C° 0 mm 3 m/S 751 mmHg 20%
22:00 +37°C° 0 mm 2 m/S 751 mmHg 21%
23:00 +36°C° 0 mm 2 m/S 751 mmHg 21%

12 Juli, Sonntag

Zeit Temperatur Niederschläge Wind Luftdruck Luftfeuchtigkeit
00:00 +35°C° 0 mm 2 m/S 751 mmHg 22%
01:00 +35°C° 0 mm 3 m/S 751 mmHg 25%
02:00 +34°C° 0 mm 4 m/S 751 mmHg 28%
03:00 +33°C° 0 mm 5 m/S 751 mmHg 31%
04:00 +33°C° 0 mm 5 m/S 751 mmHg 32%
05:00 +33°C° 0 mm 4 m/S 752 mmHg 33%
06:00 +33°C° 0 mm 4 m/S 752 mmHg 34%
07:00 +34°C° 0 mm 4 m/S 752 mmHg 31%
08:00 +36°C° 0 mm 4 m/S 752 mmHg 27%
09:00 +37°C° 0 mm 4 m/S 753 mmHg 24%
10:00 +39°C° 0 mm 3 m/S 752 mmHg 22%
11:00 +40°C° 0 mm 3 m/S 752 mmHg 20%
12:00 +42°C° 0 mm 3 m/S 752 mmHg 18%
13:00 +42°C° 0 mm 2 m/S 751 mmHg 16%
14:00 +43°C° 0 mm 2 m/S 751 mmHg 15%
15:00 +45°C° 0 mm 2 m/S 751 mmHg 14%
16:00 +44°C° 0 mm 3 m/S 750 mmHg 14%
17:00 +44°C° 0 mm 3 m/S 750 mmHg 14%
18:00 +44°C° 0 mm 4 m/S 750 mmHg 14%
19:00 +43°C° 0 mm 3 m/S 750 mmHg 15%
20:00 +40°C° 0 mm 3 m/S 750 mmHg 17%
21:00 +39°C° 0 mm 3 m/S 751 mmHg 19%
22:00 +38°C° 0 mm 3 m/S 751 mmHg 20%
23:00 +37°C° 0 mm 3 m/S 751 mmHg 21%
Mehr zeigen